Wind_Speed
8 8 8 8 8 7 7 7 7 7 8 8 9 9 10 11 11 12 12 12 12 13 13 13 13 14 15 16 16 17 17 17 17 18 19 20 20 20 21 21 22 23 24
10 10 10 10 9 9 8 8 9 9 10 10 10 11 12 12 13 13 13 13 13 13 13 14 14 15 16 17 17 18 19 19 19 20 21 21 22 22 23 23 24 24 25
11 11 11 11 10 10 10 10 10 11 11 12 13 14 14 14 15 15 15 15 14 15 15 16 16 17 18 18 18 19 20 20 21 21 22 22 23 24 25 25 25 25 26
13 13 13 13 13 12 13 13 13 13 14 14 15 16 16 16 17 17 17 16 17 17 17 18 18 19 20 20 20 21 21 22 22 22 23 24 25 25 26 26 25 25 25
15 15 15 15 15 15 15 15 15 15 16 16 17 18 18 18 19 18 18 18 18 18 18 19 20 21 22 22 22 23 23 23 24 24 25 26 27 27 27 27 27 26 25
18 18 18 18 18 18 18 18 18 18 18 18 18 19 20 20 21 20 20 20 19 19 20 21 22 23 23 23 23 24 25 25 26 26 26 27 27 27 28 28 27 26 26
20 20 21 21 21 21 21 21 21 21 21 21 21 22 22 22 23 23 23 23 22 22 22 22 23 24 24 24 24 25 26 26 27 28 28 28 29 29 29 28 28 27 27
22 22 23 24 24 23 24 24 23 24 24 23 24 24 24 25 25 26 26 26 24 24 24 24 24 25 26 26 26 27 28 29 29 30 29 30 30 30 29 29 29 29 28
25 25 25 26 26 26 26 26 26 27 27 27 26 26 26 26 26 27 27 27 27 26 27 28 27 28 28 29 29 29 30 30 31 30 29 30 31 31 30 29 30 30 29
28 27 27 28 28 28 28 29 29 29 29 29 29 29 28 28 28 29 29 30 29 29 30 30 30 30 31 31 31 31 31 31 31 30 31 31 31 31 32 30 30 30 30
30 30 30 31 30 30 30 31 31 32 32 32 32 31 32 31 31 31 32 31 31 31 32 32 32 32 32 32 32 32 32 32 32 32 32 32 32 33 33 32 31 32 32
32 33 33 33 32 32 32 32 33 34 34 34 34 34 34 33 33 34 34 34 34 34 34 34 34 33 33 33 33 33 33 34 33 33 33 32 33 34 33 33 33 33 33
33 33 34 34 34 34 34 34 34 35 35 36 36 36 36 36 35 35 36 36 37 37 37 36 35 35 34 35 35 35 35 35 34 34 34 33 33 34 34 33 33 34 34
34 34 35 35 35 35 36 36 36 36 36 37 37 37 36 36 37 38 39 39 39 38 38 38 36 36 37 37 36 37 37 36 35 35 35 34 34 35 35 34 34 33 33
35 35 35 35 36 36 37 37 37 37 37 37 38 38 38 38 38 39 39 39 39 39 38 38 38 38 38 38 38 38 37 37 36 36 35 35 34 35 35 35 33 33 33
36 36 36 37 37 37 38 38 38 37 38 38 39 40 39 39 38 38 38 39 39 39 39 38 39 39 38 38 39 38 38 37 37 37 36 36 35 35 35 35 34 34 33
36 37 38 38 38 38 38 38 38 38 39 39 39 39 39 39 38 38 38 38 38 38 38 38 39 39 39 38 38 38 38 37 37 36 36 36 36 35 35 35 35 34 34
36 37 37 38 38 38 38 39 39 39 39 39 39 39 39 39 39 38 38 39 39 38 38 39 39 39 39 38 38 38 38 38 37 37 37 37 37 37 36 35 35 34 34
38 38 38 38 39 39 39 39 39 39 39 39 39 38 39 39 39 39 39 39 39 39 39 39 39 39 38 38 37 38 38 38 37 37 38 38 37 37 36 36 35 35 34
38 38 38 38 38 38 38 38 38 38 39 39 38 37 37 37 37 38 38 39 38 37 37 38 37 37 36 36 37 37 38 37 37 37 38 38 37 37 37 36 35 35 35
37 37 37 37 36 36 37 37 37 37 37 36 36 36 36 36 36 35 35 35 34 34 34 35 35 36 36 37 38 37 37 37 38 38 38 38 37 36 36 35 35 34 35
36 36 36 37 37 35 35 35 34 34 34 34 35 35 36 36 35 35 34 33 33 33 34 34 35 35 36 36 36 36 37 38 38 38 38 37 36 36 35 35 35 34 34
35 35 35 36 36 34 33 33 33 33 33 34 34 34 35 34 34 33 33 33 33 33 34 34 35 35 36 36 37 37 37 37 37 36 36 36 35 35 35 35 34 34 33
33 33 33 33 33 33 33 33 33 33 32 33 34 34 34 33 33 33 33 32 32 32 33 34 34 35 35 35 35 36 36 36 36 36 36 35 35 34 35 35 35 34 33
32 32 32 32 32 32 32 32 32 33 33 34 34 34 34 33 33 33 33 32 32 33 33 33 33 33 34 34 35 35 35 35 36 36 35 35 35 35 36 36 35 34 34
31 31 31 32 32 32 31 32 32 32 32 31 31 32 32 33 34 34 33 33 33 33 33 33 33 33 33 33 34 35 35 36 36 36 36 36 36 36 36 36 35 34 33
Wind_Direction
312 314 314 315 318 316 316 314 313 314 315 316 318 321 321 320 321 321 320 318 313 313 312 310 309 308 308 308 307 306 306 305 303 304 304 305 306 307 308 305 302 300 297
299 301 304 303 303 307 307 305 303 303 301 303 307 311 313 313 313 312 312 312 309 309 308 308 307 307 307 307 305 304 304 303 303 303 303 305 305 306 306 304 303 300 299
291 294 296 299 300 301 301 300 301 297 296 298 299 303 305 305 307 309 306 307 305 307 307 308 307 306 304 305 305 304 302 302 302 302 303 304 303 303 304 304 303 301 300
288 292 294 292 293 293 294 294 296 295 293 293 295 298 299 300 301 302 303 303 303 302 302 305 305 305 304 303 303 302 301 300 300 300 301 302 303 303 304 302 302 301 302
282 287 288 287 287 286 288 289 289 290 290 290 293 295 296 297 296 295 295 297 300 299 302 303 303 304 304 302 301 301 301 301 301 301 302 303 304 303 303 302 301 301 303
284 283 282 282 282 283 284 285 285 287 290 291 292 294 294 295 292 294 291 293 296 298 300 302 303 305 305 303 302 302 301 301 300 301 301 302 302 303 302 301 300 301 302
282 282 282 281 282 281 281 283 285 287 289 290 291 292 292 291 291 293 292 290 292 294 298 301 302 303 304 304 303 303 303 302 301 301 300 302 302 302 301 301 301 300 300
278 280 282 282 282 283 284 284 284 288 288 288 289 292 293 293 293 291 291 289 289 291 294 297 299 300 301 302 304 304 303 302 301 301 301 302 302 301 300 300 301 301 299
277 278 281 282 283 283 284 283 282 284 286 285 287 289 290 290 292 293 292 290 289 290 293 294 296 298 299 300 301 303 303 302 301 302 302 303 303 302 299 298 298 298 298
277 278 279 280 281 281 282 282 282 283 284 284 285 286 286 287 287 289 291 291 289 290 292 293 296 297 296 297 299 301 303 302 301 300 300 302 302 302 300 297 297 296 297
278 278 279 280 281 281 281 281 281 281 282 282 283 285 285 285 285 287 289 288 287 288 291 292 294 295 296 297 298 300 301 301 301 300 300 301 301 301 301 297 295 296 295
278 278 279 279 280 280 281 281 281 281 281 282 283 283 283 283 283 283 284 286 287 287 289 291 291 292 295 296 297 298 299 299 299 300 300 300 300 300 299 297 295 295 295
277 277 278 278 279 279 280 280 280 281 282 282 282 283 282 281 281 282 282 283 284 285 288 290 290 290 292 294 295 295 297 297 297 297 298 299 299 298 299 298 296 295 294
279 279 279 278 278 279 279 279 279 281 282 282 282 283 283 282 282 281 281 281 282 284 285 286 287 288 290 291 292 293 295 296 296 296 297 297 298 298 298 298 297 295 293
280 280 280 280 279 278 279 279 279 279 280 281 281 281 282 282 280 279 280 281 281 281 283 284 286 287 288 288 291 292 292 293 294 295 296 297 298 298 297 297 296 293 292
279 280 281 281 281 280 280 280 279 278 279 280 281 281 281 281 281 282 281 280 279 280 281 283 285 286 287 289 289 290 290 292 294 293 294 296 297 297 296 296 295 293 292
280 281 281 282 282 281 281 280 279 278 278 279 280 280 281 281 281 282 281 279 279 281 282 284 285 286 288 287 288 288 288 289 291 292 293 294 295 296 295 295 294 293 292
281 282 283 283 282 282 281 280 279 279 279 278 279 280 280 280 280 280 280 280 280 281 282 283 284 286 287 287 287 288 288 288 289 291 293 293 294 294 294 294 293 292 290
283 284 284 284 283 282 281 280 279 278 278 278 279 279 280 280 279 280 280 281 281 281 282 282 284 285 286 286 287 288 287 287 288 290 293 294 293 293 293 293 292 291 289
283 284 285 286 285 283 283 282 280 278 277 277 278 280 283 283 281 280 281 281 281 280 281 283 284 284 286 287 287 287 287 287 288 289 292 292 291 290 291 292 292 291 290
283 284 284 285 285 285 284 282 281 280 280 280 279 279 281 283 283 283 283 283 282 282 283 284 284 286 287 287 287 287 287 287 288 288 290 291 290 290 291 292 292 291 290
283 284 285 286 286 286 286 285 282 281 281 281 280 281 283 284 285 286 285 285 285 284 284 284 286 287 288 287 287 287 287 289 289 290 289 290 290 290 290 291 292 292 291
285 285 285 285 285 285 285 285 284 284 283 283 283 283 283 284 286 285 284 284 284 284 285 286 287 287 287 288 288 289 289 290 290 290 289 289 290 290 290 290 290 290 290
285 285 285 285 285 285 286 286 284 284 283 283 283 284 284 285 285 286 286 285 285 286 287 288 287 287 288 288 288 288 289 290 290 290 289 289 290 290 290 290 290 290 290
284 284 284 284 284 285 285 284 284 284 284 284 284 284 285 286 287 286 286 287 287 287 289 290 291 290 289 288 287 287 288 289 290 289 288 288 289 289 289 290 290 289 289
284 284 284 284 285 286 285 284 284 285 284 283 283 283 284 285 286 286 287 287 287 287 288 290 290 291 291 290 290 290 289 289 288 287 286 287 288 288 288 288 288 288 288
Height
5895 5894 5894 5893 5893 5892 5892 5891 5891 5891 5890 5890 5889 5888 5888 5887 5886 5884 5883 5882 5881 5880 5879 5877 5876 5875 5874 5873 5871 5870 5869 5867 5866 5865 5863 5861 5860 5858 5856 5853 5852 5850 5849
5893 5893 5892 5892 5891 5891 5890 5890 5889 5889 5889 5888 5887 5886 5886 5885 5883 5882 5880 5879 5878 5877 5876 5874 5873 5871 5870 5869 5867 5866 5865 5863 5862 5860 5858 5856 5855 5853 5851 5848 5846 5845 5843
5891 5890 5890 5890 5889 5889 5888 5888 5887 5887 5886 5885 5885 5884 5883 5881 5880 5879 5877 5876 5875 5874 5872 5871 5870 5868 5866 5865 5863 5862 5860 5858 5857 5855 5853 5851 5850 5847 5845 5843 5841 5839 5837
5888 5888 5887 5887 5886 5886 5885 5885 5884 5884 5883 5882 5881 5880 5879 5878 5876 5875 5874 5872 5871 5870 5868 5867 5865 5864 5862 5860 5859 5857 5855 5853 5851 5850 5848 5846 5844 5842 5839 5837 5835 5833 5831
5884 5884 5884 5883 5883 5882 5882 5881 5881 5880 5879 5878 5877 5876 5875 5874 5872 5870 5869 5868 5866 5865 5864 5863 5861 5859 5857 5855 5854 5852 5850 5848 5846 5844 5842 5840 5838 5835 5833 5831 5828 5826 5824
5880 5880 5880 5879 5878 5878 5877 5877 5876 5876 5875 5874 5872 5871 5870 5869 5867 5865 5864 5863 5861 5860 5859 5858 5856 5854 5851 5849 5847 5845 5844 5841 5839 5838 5836 5833 5831 5829 5826 5824 5821 5819 5817
5876 5875 5875 5874 5873 5873 5872 5871 5871 5870 5869 5868 5867 5866 5864 5864 5862 5861 5859 5857 5856 5855 5853 5852 5850 5848 5846 5844 5842 5840 5837 5835 5833 5830 5828 5826 5824 5821 5819 5816 5814 5812 5810
5870 5870 5869 5868 5867 5866 5866 5865 5865 5864 5863 5862 5861 5859 5858 5857 5855 5854 5852 5851 5850 5848 5847 5845 5844 5842 5839 5837 5835 5833 5831 5828 5826 5823 5821 5818 5816 5813 5811 5809 5806 5804 5802
5864 5863 5862 5861 5860 5859 5859 5857 5857 5856 5856 5854 5853 5852 5851 5850 5848 5847 5845 5844 5843 5842 5840 5838 5836 5835 5833 5831 5829 5826 5824 5821 5818 5815 5812 5810 5807 5805 5802 5800 5798 5796 5794
5857 5856 5855 5854 5853 5852 5851 5850 5849 5848 5848 5847 5845 5844 5843 5842 5841 5839 5838 5836 5835 5834 5832 5830 5828 5826 5825 5823 5820 5818 5816 5813 5810 5808 5805 5802 5799 5796 5794 5791 5789 5787 5785
5849 5848 5847 5846 5845 5844 5843 5842 5841 5840 5839 5838 5837 5836 5835 5833 5832 5831 5829 5828 5826 5825 5824 5822 5820 5819 5816 5814 5812 5810 5807 5805 5802 5799 5797 5794 5791 5788 5785 5783 5780 5778 5776
5839 5839 5838 5837 5836 5835 5834 5833 5832 5831 5830 5829 5828 5827 5825 5824 5823 5822 5821 5819 5818 5816 5815 5814 5812 5810 5808 5806 5803 5801 5798 5796 5793 5791 5788 5785 5783 5780 5777 5774 5771 5769 5766
5829 5829 5828 5827 5826 5825 5825 5824 5823 5822 5820 5819 5818 5817 5816 5814 5813 5812 5811 5809 5808 5807 5805 5804 5802 5801 5799 5797 5794 5792 5789 5787 5784 5782 5779 5776 5773 5771 5768 5765 5762 5759 5757
5820 5819 5818 5817 5816 5815 5814 5813 5812 5811 5810 5809 5807 5806 5804 5803 5803 5802 5800 5799 5798 5796 5795 5794 5792 5790 5788 5787 5784 5782 5779 5777 5774 5772 5769 5766 5764 5761 5758 5755 5752 5750 5747
5809 5808 5807 5806 5805 5804 5803 5802 5801 5800 5799 5798 5797 5795 5795 5793 5792 5791 5789 5788 5787 5786 5784 5783 5782 5780 5778 5776 5774 5771 5769 5766 5764 5761 5759 5757 5754 5751 5748 5745 5742 5740 5737
5799 5797 5796 5794 5793 5792 5791 5790 5789 5789 5788 5786 5785 5784 5783 5781 5780 5779 5778 5776 5775 5774 5773 5772 5771 5769 5767 5765 5763 5760 5758 5756 5753 5751 5749 5746 5743 5740 5738 5735 5732 5730 5727
5788 5787 5785 5783 5782 5780 5779 5778 5778 5777 5776 5775 5774 5773 5771 5770 5769 5768 5766 5765 5763 5762 5761 5760 5759 5757 5755 5753 5751 5749 5747 5745 5743 5741 5738 5735 5733 5730 5727 5725 5722 5719 5717
5778 5776 5774 5772 5770 5769 5768 5767 5766 5765 5764 5763 5763 5761 5760 5759 5757 5756 5755 5753 5752 5751 5750 5749 5747 5745 5744 5742 5740 5738 5736 5734 5732 5730 5727 5725 5722 5719 5717 5714 5711 5709 5706
5767 5765 5763 5761 5760 5758 5756 5755 5754 5753 5752 5752 5751 5749 5748 5746 5746 5745 5743 5742 5741 5740 5738 5737 5735 5733 5732 5730 5728 5726 5724 5722 5720 5718 5716 5713 5711 5708 5706 5703 5700 5698 5696
5756 5755 5753 5751 5749 5747 5745 5743 5742 5741 5740 5740 5739 5738 5737 5735 5734 5733 5732 5730 5729 5727 5726 5725 5724 5722 5720 5719 5717 5715 5713 5711 5709 5707 5705 5702 5700 5697 5695 5692 5690 5687 5685
5746 5744 5742 5739 5738 5736 5734 5732 5730 5730 5729 5728 5728 5727 5726 5724 5723 5721 5720 5719 5717 5716 5715 5714 5712 5711 5709 5707 5706 5704 5702 5700 5698 5695 5693 5691 5688 5686 5683 5681 5678 5676 5674
5736 5734 5732 5729 5727 5725 5723 5722 5720 5719 5718 5717 5717 5716 5715 5714 5712 5711 5710 5708 5707 5706 5704 5703 5702 5700 5698 5696 5694 5692 5691 5689 5686 5684 5682 5680 5677 5675 5673 5670 5667 5665 5663
5726 5724 5721 5719 5717 5715 5713 5712 5710 5709 5708 5707 5707 5706 5704 5703 5701 5700 5699 5698 5697 5695 5694 5692 5690 5689 5687 5685 5683 5681 5680 5677 5675 5673 5671 5669 5666 5664 5662 5659 5657 5654 5652
5716 5714 5711 5709 5708 5706 5704 5702 5701 5700 5699 5698 5697 5695 5694 5692 5691 5690 5689 5687 5686 5685 5683 5681 5679 5678 5676 5674 5672 5670 5668 5666 5663 5661 5659 5657 5655 5653 5650 5648 5646 5644 5642
5706 5704 5702 5700 5698 5696 5695 5693 5692 5691 5690 5688 5687 5686 5684 5683 5681 5680 5679 5678 5676 5675 5673 5671 5669 5667 5665 5663 5661 5659 5657 5655 5652 5650 5647 5645 5643 5641 5639 5637 5634 5633 5631
5697 5695 5693 5691 5689 5687 5686 5684 5682 5681 5680 5679 5677 5676 5674 5673 5672 5671 5669 5668 5666 5664 5663 5661 5659 5657 5655 5653 5651 5648 5646 5643 5640 5638 5636 5634 5631 5629 5627 5625 5623 5621 5619